Location: Devore Heights
(34.2372°N, 117.4156°W)
Time: 08:24:28
(UTC+00:00)

Altair - Pass Details

Date: 14 September 2024
Orbit: 1501 x 1682 km, 47.2° (Epoch: 07 October)

Event Time Altitude Azimuth Distance (km) Brightness Sun altitude
Rises 18:15:04 0° 301° (WNW) 4,928 9.8 52.4°
Reaches altitude 10° 18:18:30 10° 294° (WNW) 3,925 9.4 52.8°
Maximum altitude 18:27:34 40° 230° (SW) 2,254 9.0 53.9°
Drops below altitude 10° 18:36:22 10° 165° (SSE) 3,800 10.3 54.9°
Sets 18:39:40 0° 158° (SSE) 4,756 10.6 55.3°
